Location: Newark
(49.8969°N, 3.3422°E)
Time: 01:58:39
(UTC+00:00)

deb Explorer IX - Pass Details

Date: 23 January 2020
Orbit: 549 x 1099 km, 38.8° (Epoch: 20 February)

Event Time Altitude Azimuth Distance (km) Brightness Sun altitude
Rises 21:54:09 0° 217° (SW) 3,813 - -50.8°
Reaches altitude 10° 21:57:27 10° 203° (SSW) 2,908 - -51.2°
Maximum altitude 22:02:43 22° 156° (SSE) 2,176 - -51.8°
Drops below altitude 10° 22:08:01 10° 109° (ESE) 2,934 - -52.4°
Sets 22:11:22 0° 95° (E) 3,856 - -52.8°
